sat.trackr.live / text

‹ back to catalog

UNKNOWN

NORAD 82369

UNKNOWN UNKNOWN UNKNOWN

§ Identity

Operator
Country
Launch date
Launch site
Launch vehicle
Mass (kg)
RCS (m²)

External: N2YO · Heavens-Above

§ Orbital elements

Epoch: 2026-05-23T18:08:08.857248Z

Period
102.98 min
Inclination
98.8895°
Eccentricity
0.0081880
Mean motion
13.98262989 rev/d
Perigee alt
840.2 km
Apogee alt
959.4 km
Semi-major
7,278.0 km
B*
3.3821e-4
RAAN
158.9060°
Arg perigee
250.6568°
Mean anomaly
108.5730°
Rev number
57,981

§ Raw data

UNKNOWN1 82369U          26143.75565807  .00000453  00000+0  33821-3 0  99982 82369  98.8895 158.9060 0081880 250.6568 108.5730 13.98262989579814

JSON: /api/v1/satellites/82369 · /tle

For live sub-satellite position, see the globe view (requires WebGL).

§ Visibility from observer

Set your observer location to see the next 7 days of passes ≥ 10°. The values pass through the URL so the page stays shareable.

No JS? Fill the form by hand. The geolocation button needs JavaScript.